Location: Clatteringshaws Loch
(55.0508°N, 4.2860°W)
Time: 02:02:40
(UTC+01:00)

ALOS - Visible Passes

Search period start: 28 August 2014 00:00
Search period end: 07 September 2014 00:00
Orbit: 689 x 689 km, 98.0° (Epoch: 26 August)

Date Brightness Start Highest point End Pass type
(mag) Time Alt. Az. Time Alt. Az. Time Alt. Az.
28 Aug 3.0 20:54:56 10° SE 20:59:15 38° ENE 21:03:36 10° N visible
28 Aug 3.5 22:32:26 10° SSW 22:36:47 38° W 22:41:10 10° NNW visible
29 Aug 2.3 21:33:04 10° SSE 21:37:44 75° ENE 21:42:27 10° NNW visible
29 Aug 4.5 23:12:26 10° SW 23:15:47 19° W 23:19:10 10° NW visible
30 Aug 2.9 22:12:07 12° S 22:16:26 54° W 22:21:03 10° NNW visible
31 Aug 2.6 21:13:00 10° SE 21:17:33 52° ENE 21:22:07 10° N visible
31 Aug 4.1 22:51:20 10° SSW 22:55:19 27° W 22:59:20 10° NW visible
01 Sep 2.4 21:51:53 13° SSE 21:56:08 79° WSW 22:00:51 10° NNW visible
01 Sep 4.8 23:32:03 10° WSW 23:34:26 14° W 23:36:50 10° NW visible
02 Sep 3.0 20:53:06 10° SE 20:57:24 37° ENE 21:01:43 10° N visible
02 Sep 3.5 22:31:04 13° SSW 22:34:55 39° W 22:39:19 10° NNW visible
03 Sep 2.3 21:31:39 13° SSE 21:35:53 73° ENE 21:40:35 10° NNW visible
03 Sep 4.5 23:10:30 10° SW 23:13:54 20° W 23:17:20 10° NW visible
04 Sep 2.8 22:10:50 15° S 22:14:33 56° W 22:19:12 10° NNW visible
05 Sep 2.6 21:11:25 12° SE 21:15:41 51° ENE 21:20:14 10° N visible
05 Sep 4.0 22:50:02 13° SSW 22:53:26 28° W 22:57:29 10° NNW visible
06 Sep 2.3 21:50:36 17° SSE 21:54:15 81° WSW 21:58:59 10° NNW visible
06 Sep 4.8 23:30:03 10° WSW 23:32:32 14° W 23:35:02 10° NW visible
